User: anonymous   Login
Location: Unspecified
(0.0000°N, 0.0000°E)
Time: 03:33:57
(UTC+00:00)
Language:

JB-3 - Orbit

View from above orbital plane
View from above orbital plane
View from above satellite
View from above satellite

Ground track
Ground track

The orbit data is extracted from the following two-line orbital elements,

1 28470U 04044A   18022.92088351 +.00000831 +00000-0 +65641-4 0  9990
2 28470 097.3997 300.4061 0046250 318.5183 041.2535 15.02492517725917
Epoch (UTC): 22 January 2018 22:06:04
Eccentricity: 0.0046250
inclination: 97.3997°
perigee height: 527 km
apogee height: 591 km
right ascension of ascending node: 300.4061°
argument of perigee: 318.5183°
revolutions per day: 15.02492517
mean anomaly at epoch: 41.2535°
orbit number at epoch: 72591

The dashed part of the orbit path shows where the satellite is in the earth's shadow,  

DLR